Weather History for Tyler, TX

Change the Weather History Date:

Tuesday, June 11, 2013

  Actual Average Record
Temperature  
Mean Temperature 83 °F 79 °F  
Max Temperature 92 °F 88 °F 103 °F (1911)
Min Temperature 73 °F 70 °F 52 °F (1988)
Degree Days  
Heating Degree Days 0 0  
Month to date heating degree days 0 0  
Since 1 June heating degree days 0 0  
Since 1 July heating degree days 2013 2269  
Cooling Degree Days 18 14  
Month to date cooling degree days 141 141  
Year to date cooling degree days 538 510  
Since 1 June cooling degree days 141 141  
Growing Degree Days 32 (Base 50)    
Moisture  
Dew Point 70 °F    
Average Humidity 71    
Maximum Humidity 93    
Minimum Humidity 49    
Precipitation  
Precipitation 0.00 in 0.16 in 3.03 in (1995)
Month to date precipitation 0.95 1.69  
Year to date precipitation 14.99 20.62  
Snow  
Snow 0.00 in - - ()
Month to date snowfall 0.0  
Since 1 June snowfall 0.0  
Since 1 July snowfall 1.0  
Snow Depth 0.00 in    
Sea Level Pressure  
Sea Level Pressure 30.01 in    
Wind  
Wind Speed 10 mph (South)    
Max Wind Speed 24 mph    
Max Gust Speed 29 mph    
Visibility 10 miles    
Events      
T = Trace of Precipitation, MM = Missing Value Source: NWS Daily Summary

Daily Weather History Graph

Daily Weather History Graph

Search for Another Location

Airport:

Trip Planner

Search our weather history database for the weather conditions in past years. The results will help you decide how hot, cold, wet, or windy it might be!

Date:

Astronomy

Jun. 11, 2013 Rise Set
Actual Time 6:14 AM CDT 8:28 PM CDT
Civil Twilight 5:45 AM CDT 8:57 PM CDT
Nautical Twilight 5:11 AM CDT 9:31 PM CDT
Astronomical Twilight 4:33 AM CDT 10:09 PM CDT
Moon 8:51 AM CDT (6/11) 10:40 PM CDT (6/11)
Length of Visible Light 15h 11m
Length of Day
14h 14m
Waxing Crescent, 8% of the Moon is Illuminated
Jun 11
Waxing Crescent
Jun 16
First Quarter
Jun 23
Full
Jun 29
Last Quarter
Jul 8
New

Hourly Weather History & Observations

Time (CDT) Temp. Heat Index Dew Point Humidity Pressure Visibility Wind Dir Wind Speed Gust Speed Precip Events Conditions
12:53 AM 77.0 °F - 68.0 °F 74% 29.98 in 10.0 mi South 4.6 mph - N/A   Clear
1:53 AM 75.0 °F - 69.1 °F 82% 29.97 in 10.0 mi South 5.8 mph - N/A   Clear
2:53 AM 73.9 °F - 69.1 °F 85% 29.97 in 10.0 mi South 4.6 mph - N/A   Clear
3:53 AM 73.0 °F - 70.0 °F 90% 29.97 in 10.0 mi South 6.9 mph - N/A   Clear
4:53 AM 73.9 °F - 71.1 °F 91% 29.99 in 10.0 mi South 6.9 mph - N/A   Clear
5:53 AM 73.9 °F - 71.1 °F 91% 30.00 in 10.0 mi South 8.1 mph - N/A   Clear
6:53 AM 75.0 °F - 72.0 °F 90% 30.02 in 10.0 mi South 6.9 mph - N/A   Clear
7:53 AM 77.0 °F - 72.0 °F 84% 30.04 in 10.0 mi SSW 9.2 mph - N/A   Clear
8:11 AM 78.8 °F - 71.6 °F 78% 30.07 in 10.0 mi SSW 10.4 mph - N/A   Partly Cloudy
8:28 AM 78.8 °F - 71.6 °F 78% 30.08 in 10.0 mi SSW 10.4 mph - N/A   Mostly Cloudy
8:53 AM 78.1 °F - 72.0 °F 81% 30.06 in 10.0 mi SSW 12.7 mph - N/A   Overcast
9:53 AM 80.1 °F 83.6 °F 71.1 °F 74% 30.06 in 10.0 mi SW 10.4 mph - N/A   Partly Cloudy
10:53 AM 84.0 °F 88.4 °F 70.0 °F 63% 30.05 in 10.0 mi SSW 9.2 mph - N/A   Clear
11:53 AM 86.0 °F 90.1 °F 69.1 °F 57% 30.05 in 10.0 mi SW 6.9 mph - N/A   Clear
12:53 PM 89.1 °F 94.1 °F 70.0 °F 53% 30.04 in 10.0 mi South 11.5 mph 19.6 mph N/A   Partly Cloudy
1:53 PM 91.0 °F 96.6 °F 70.0 °F 50% 30.03 in 10.0 mi SSW 12.7 mph 21.9 mph N/A   Scattered Clouds
2:53 PM 90.0 °F 94.5 °F 69.1 °F 50% 30.00 in 10.0 mi South 10.4 mph 19.6 mph N/A   Scattered Clouds
3:53 PM 91.0 °F 95.6 °F 69.1 °F 48% 29.99 in 10.0 mi SSW 12.7 mph - N/A   Clear
4:53 PM 91.9 °F 97.4 °F 70.0 °F 48% 29.98 in 10.0 mi South 12.7 mph - N/A   Partly Cloudy
5:53 PM 91.9 °F 96.9 °F 69.1 °F 47% 29.97 in 10.0 mi South 11.5 mph - N/A   Clear
6:53 PM 87.1 °F 90.6 °F 68.0 °F 53% 29.97 in 10.0 mi SSW 18.4 mph - N/A   Clear
7:53 PM 84.0 °F 86.5 °F 66.9 °F 56% 29.98 in 10.0 mi South 10.4 mph - N/A   Clear
8:53 PM 81.0 °F 84.1 °F 69.1 °F 67% 29.99 in 10.0 mi South 8.1 mph - N/A   Clear
9:53 PM 79.0 °F - 69.1 °F 72% 30.00 in 10.0 mi South 6.9 mph - N/A   Clear
10:53 PM 77.0 °F - 69.1 °F 76% 30.01 in 10.0 mi South 4.6 mph - N/A   Clear
11:53 PM 75.9 °F - 69.1 °F 79% 30.01 in 10.0 mi South 9.2 mph - N/A   Clear